Weather History for KDBN - November, 2011

Change the Weather History Date:

Friday, November 4, 2011

  Actual Average Record
Temperature  
Mean Temperature 57 °F -  
Max Temperature 68 °F 74 °F 89 °F (1974)
Min Temperature 46 °F 46 °F 29 °F (1954)
Degree Days  
Heating Degree Days 8    
Growing Degree Days 7 (Base 50)    
Moisture  
Dew Point 44 °F    
Average Humidity 67    
Maximum Humidity 100    
Minimum Humidity 43    
Precipitation  
Precipitation 0.00 in - - ()
Sea Level Pressure  
Sea Level Pressure 29.92 in    
Wind  
Wind Speed 10 mph (NW)    
Max Wind Speed 16 mph    
Max Gust Speed 23 mph    
Visibility 10 miles    
Events      
Averages and records for this station are not official NWS values.
T = Trace of Precipitation, MM = Missing Value Source: NWS Daily Summary

Daily Weather History Graph

Daily Weather History Graph

Search for Another Location

Airport or City:

Trip Planner

Search our weather history database for the weather conditions in past years. The results will help you decide how hot, cold, wet, or windy it might be!

Date:

Astronomy

Nov. 04, 2011 Rise Set
Actual Time 7:51 AM EDT 6:38 PM EDT
Civil Twilight 7:26 AM EDT 7:04 PM EDT
Nautical Twilight 6:56 AM EDT 7:33 PM EDT
Astronomical Twilight 6:28 AM EDT 8:02 PM EDT
Moon 3:13 PM EDT (11/4) 2:21 AM EDT (11/4)
Length of Visible Light 11h 38m
Length of Day
10h 47m
Waxing Gibbous, 69% of the Moon is Illuminated
Nov 4
Waxing Gibbous
Nov 10
Full
Nov 18
Last Quarter
Nov 25
New
Dec 2
First Quarter

Hourly Weather History & Observations

Time (EDT) Temp. Windchill Dew Point Humidity Pressure Visibility Wind Dir Wind Speed Gust Speed Precip Events Conditions
12:35 AM 55.4 °F - 55.4 °F 100% 29.90 in 10.0 mi WNW 12.7 mph 18.4 mph N/A   Overcast
1:15 AM 51.8 °F - 50.0 °F 94% 29.92 in 10.0 mi WNW 8.1 mph - N/A   Mostly Cloudy
1:55 AM 51.8 °F - 50.0 °F 94% 29.91 in 10.0 mi WNW 5.8 mph - N/A   Overcast
2:15 AM 51.8 °F - 48.2 °F 88% 29.91 in 10.0 mi WNW 8.1 mph - N/A   Overcast
2:35 AM 50.0 °F - 46.4 °F 87% 29.91 in 10.0 mi WNW 10.4 mph 17.3 mph N/A   Overcast
3:15 AM 50.0 °F - 42.8 °F 76% 29.90 in 10.0 mi NW 9.2 mph - N/A   Overcast
3:35 AM 48.2 °F - 42.8 °F 82% 29.90 in 10.0 mi NW 12.7 mph 17.3 mph N/A   Overcast
3:55 AM 48.2 °F - 41.0 °F 76% 29.90 in 10.0 mi NW 9.2 mph 16.1 mph N/A   Overcast
4:15 AM 48.2 °F - 41.0 °F 76% 29.90 in 10.0 mi WNW 12.7 mph 21.9 mph N/A   Overcast
4:35 AM 48.2 °F - 41.0 °F 76% 29.90 in 10.0 mi NW 8.1 mph 17.3 mph N/A   Overcast
4:55 AM 46.4 °F 42.9 °F 41.0 °F 81% 29.90 in 10.0 mi WNW 6.9 mph - N/A   Overcast
5:15 AM 46.4 °F 43.5 °F 41.0 °F 81% 29.89 in 10.0 mi WNW 5.8 mph - N/A   Overcast
5:35 AM 48.2 °F - 41.0 °F 76% 29.89 in 10.0 mi WNW 9.2 mph - N/A   Overcast
5:55 AM 48.2 °F - 41.0 °F 76% 29.90 in 10.0 mi WNW 6.9 mph 18.4 mph N/A   Overcast
6:15 AM 48.2 °F - 41.0 °F 76% 29.89 in 10.0 mi NW 11.5 mph - N/A   Overcast
6:35 AM 46.4 °F 41.9 °F 41.0 °F 81% 29.89 in 10.0 mi WNW 9.2 mph - N/A   Overcast
6:55 AM 46.4 °F 42.4 °F 41.0 °F 81% 29.89 in 10.0 mi WNW 8.1 mph - N/A   Overcast
7:35 AM 46.4 °F 42.4 °F 41.0 °F 81% 29.90 in 10.0 mi NW 8.1 mph - N/A   Overcast
7:55 AM 46.4 °F 41.9 °F 41.0 °F 81% 29.90 in 10.0 mi WNW 9.2 mph - N/A   Overcast
8:15 AM 46.4 °F 41.5 °F 41.0 °F 81% 29.91 in 10.0 mi WNW 10.4 mph 17.3 mph N/A   Overcast
8:35 AM 48.2 °F - 41.0 °F 76% 29.92 in 10.0 mi WNW 11.5 mph 17.3 mph N/A   Overcast
8:55 AM 48.2 °F - 39.2 °F 71% 29.92 in 10.0 mi WNW 11.5 mph 19.6 mph N/A   Mostly Cloudy
9:15 AM 50.0 °F - 41.0 °F 71% 29.92 in 10.0 mi NW 13.8 mph 19.6 mph N/A   Scattered Clouds
9:35 AM 50.0 °F - 41.0 °F 71% 29.93 in 10.0 mi NW 11.5 mph 20.7 mph N/A   Mostly Cloudy
9:55 AM 50.0 °F - 41.0 °F 71% 29.93 in 10.0 mi NW 11.5 mph 19.6 mph N/A   Mostly Cloudy
10:15 AM 51.8 °F - 41.0 °F 67% 29.94 in 10.0 mi NW 11.5 mph 20.7 mph N/A   Scattered Clouds
10:35 AM 53.6 °F - 41.0 °F 62% 29.94 in 10.0 mi NW 16.1 mph 21.9 mph N/A   Scattered Clouds
10:55 AM 53.6 °F - 41.0 °F 62% 29.93 in 10.0 mi NW 13.8 mph 19.6 mph N/A   Mostly Cloudy
11:15 AM 53.6 °F - 41.0 °F 62% 29.93 in 10.0 mi NW 11.5 mph 20.7 mph N/A   Mostly Cloudy
11:35 AM 55.4 °F - 42.8 °F 63% 29.93 in 10.0 mi NW 15.0 mph 23.0 mph N/A   Scattered Clouds
11:55 AM 57.2 °F - 42.8 °F 59% 29.93 in 10.0 mi NW 11.5 mph 21.9 mph N/A   Clear
12:15 PM 59.0 °F - 42.8 °F 55% 29.94 in 10.0 mi NW 12.7 mph 19.6 mph N/A   Clear
12:35 PM 59.0 °F - 42.8 °F 55% 29.95 in 10.0 mi NW 15.0 mph 23.0 mph N/A   Clear
12:55 PM 60.8 °F - 42.8 °F 52% 29.94 in 10.0 mi North 8.1 mph 18.4 mph N/A   Scattered Clouds
1:15 PM 60.8 °F - 44.6 °F 55% 29.93 in 10.0 mi NW 10.4 mph 20.7 mph N/A   Scattered Clouds
1:35 PM 62.6 °F - 44.6 °F 52% 29.93 in 10.0 mi NW 10.4 mph 18.4 mph N/A   Clear
1:55 PM 64.4 °F - 44.6 °F 49% 29.91 in 10.0 mi NNW 10.4 mph - N/A   Clear
2:15 PM 64.4 °F - 44.6 °F 49% 29.90 in 10.0 mi NNW 11.5 mph 17.3 mph N/A   Clear
2:35 PM 64.4 °F - 44.6 °F 49% 29.90 in 10.0 mi North 5.8 mph - N/A   Scattered Clouds
3:35 PM 66.2 °F - 44.6 °F 46% 29.91 in 10.0 mi NNW 9.2 mph - N/A   Scattered Clouds
3:55 PM 66.2 °F - 44.6 °F 46% 29.91 in 10.0 mi NNW 10.4 mph 17.3 mph N/A   Mostly Cloudy
4:15 PM 68.0 °F - 44.6 °F 43% 29.91 in 10.0 mi NNW 12.7 mph 18.4 mph N/A   Mostly Cloudy
4:35 PM 66.2 °F - 44.6 °F 46% 29.91 in 10.0 mi NNW 10.4 mph - N/A   Scattered Clouds
4:55 PM 66.2 °F - 44.6 °F 46% 29.92 in 10.0 mi NNW 10.4 mph 18.4 mph N/A   Scattered Clouds
5:15 PM 66.2 °F - 46.4 °F 49% 29.93 in 10.0 mi NW 10.4 mph - N/A   Clear
5:35 PM 64.4 °F - 46.4 °F 52% 29.93 in 10.0 mi NW 10.4 mph 16.1 mph N/A   Clear
5:55 PM 64.4 °F - 46.4 °F 52% 29.94 in 10.0 mi NNW 6.9 mph - N/A   Clear
6:35 PM 60.8 °F - 46.4 °F 59% 29.96 in 10.0 mi NW 5.8 mph - N/A   Clear
6:55 PM 59.0 °F - 46.4 °F 63% 29.97 in 10.0 mi NW 4.6 mph - N/A   Clear
7:15 PM 59.0 °F - 48.2 °F 67% 29.99 in 10.0 mi NW 4.6 mph - N/A   Clear
7:35 PM 55.4 °F - 48.2 °F 77% 30.00 in 10.0 mi NW 3.5 mph - N/A   Scattered Clouds
7:55 PM 55.4 °F - 48.2 °F 77% 30.01 in 10.0 mi NNW 3.5 mph - N/A   Mostly Cloudy
8:35 PM 57.2 °F - 46.4 °F 67% 30.03 in 10.0 mi NE 6.9 mph - N/A   Scattered Clouds
8:55 PM 55.4 °F - 46.4 °F 72% 30.03 in 10.0 mi NNW 4.6 mph - N/A   Clear
9:35 PM 55.4 °F - 46.4 °F 72% 30.05 in 10.0 mi North 3.5 mph - N/A   Clear
9:55 PM 55.4 °F - 46.4 °F 72% 30.06 in 10.0 mi NNE 4.6 mph - N/A   Clear
10:15 PM 53.6 °F - 46.4 °F 77% 30.07 in 10.0 mi Calm Calm - N/A   Clear
10:35 PM 50.0 °F - 46.4 °F 87% 30.07 in 10.0 mi ENE 3.5 mph - N/A   Clear
10:55 PM 51.8 °F - 46.4 °F 82% 30.08 in 10.0 mi Calm Calm - N/A   Scattered Clouds
11:15 PM 50.0 °F - 46.4 °F 87% 30.08 in 10.0 mi Calm Calm - N/A   Clear
11:35 PM 50.0 °F - 44.6 °F 82% 30.09 in 10.0 mi NE 4.6 mph - N/A   Clear
11:55 PM 50.0 °F - 44.6 °F 82% 30.09 in 10.0 mi NE 3.5 mph - N/A   Clear